DW3735 Weather Reports


Display with metric or nautical units.
time (UTC)temp
F
wind
direction
speed
MPH
gust
MPH
rain 1hr
in
rain 24hr
in
rain mn
in
humidity
%
barometer
mb
20260901094516 62 0.0 0.0 0.00 0.01 0.00 95 1016.2
20260901093516 62 0.0 0.0 0.00 0.01 0.00 95 1016.0
20260901092516 62 0.0 0.0 0.00 0.01 0.00 95 1016.1
20260901091516 62 0.0 0.0 0.00 0.01 0.00 96 1016.3
20260901090516 62 0.0 0.0 0.00 0.01 0.00 95 1016.5
20260901085516 62 0.0 0.0 0.00 0.01 0.00 95 1016.5
20260901084517 62 0.0 0.0 0.00 0.01 0.00 95 1016.5
20260901083516 62 0.0 0.0 0.00 0.01 0.00 95 1016.3
20260901082536 62 0.0 0.0 0.00 0.01 0.00 94 1016.4
20260901081517 62 0.0 0.0 0.00 0.01 0.00 94 1016.4
20260901080516 62 0.0 0.0 0.00 0.01 0.00 94 1016.3
20260901075521 62 0.0 0.0 0.00 0.01 0.00 94 1016.2
20260901074516 62 0.0 0.0 0.00 0.01 0.00 94 1016.4
20260901073517 62 0.0 0.0 0.00 0.01 0.00 95 1016.5
20260901072516 62 0.0 0.0 0.00 0.01 0.00 95 1016.7
20260901071516 62 0.0 0.0 0.00 0.01 0.00 94 1016.7
20260901070517 63 0.0 0.0 0.00 0.01 0.00 95 1016.7
20260901065537 63 0.0 0.0 0.00 0.01 0.00 95 1016.8
20260901064516 63 0.0 0.0 0.00 0.01 0.00 95 1016.9
20260901063516 63 0.0 0.0 0.00 0.01 0.00 95 1017.0
20260901062516 63 0.0 0.0 0.00 0.01 0.00 95 1017.0
20260901061536 63 0.0 0.0 0.00 0.01 0.00 95 1017.1
20260901060517 63 0.0 0.0 0.00 0.01 0.00 95 1017.1
20260901055516 63 0.0 0.0 0.00 0.01 0.00 95 1017.1
20260901054516 63 0.0 0.0 0.00 0.01 0.00 95 1017.1
20260901053517 63 0.0 0.0 0.00 0.01 0.00 95 1016.9
20260901052516 63 0.0 0.0 0.00 0.01 0.00 94 1017.1
20260901051517 63 0.0 0.0 0.00 0.01 0.00 95 1017.0
20260901050517 63 0.0 0.0 0.00 0.01 0.00 95 1016.8
20260901045517 63 0.0 0.0 0.00 0.01 0.00 93 1016.9
20260901044536 63 0.0 0.0 0.00 0.01 0.00 93 1016.9
20260901043517 63 0.0 0.0 0.00 0.01 0.00 93 1017.0
20260901042537 63 0.0 0.0 0.00 0.01 0.00 91 1016.9
20260901041517 63 0.0 0.0 0.00 0.01 0.00 92 1017.0
20260901040516 63 0.0 0.0 0.00 0.01 0.00 93 1017.1
20260901035517 63 0.0 0.0 0.00 0.01 0.01 88 1017.0
20260901034516 63 0.0 0.0 0.00 0.01 0.01 86 1017.0
20260901033517 63 0.0 0.0 0.00 0.01 0.01 86 1017.0
20260901032517 64 0.0 0.0 0.00 0.01 0.01 85 1017.0
20260901031517 64 0.0 0.0 0.00 0.01 0.01 85 1016.9
20260901030538 64 0.0 0.0 0.00 0.01 0.01 82 1017.1
20260901025517 64 0.0 0.0 0.00 0.01 0.01 82 1017.1
20260901024516 64 0.0 0.0 0.00 0.01 0.01 82 1017.3
20260901023517 64 0.0 0.0 0.00 0.01 0.01 81 1017.4
20260901022536 65 0.0 0.0 0.00 0.01 0.01 80 1017.3
20260901021517 65 0.0 0.0 0.00 0.01 0.01 79 1017.3
20260901020517 65 0.0 0.0 0.00 0.01 0.01 79 1017.0
20260901015517 65 0.0 0.0 0.00 0.01 0.01 78 1017.0
20260901014516 66 0.0 0.0 0.00 0.01 0.01 78 1016.9
20260901014018 66 0.0 0.0 0.00 0.01 0.01 78 1017.0
20260901013017 66 0.0 0.0 0.00 0.01 0.01 77 1017.2
20260901012018 66 0.0 0.0 0.00 0.01 0.01 77 1017.1
20260901011017 67 0.0 0.0 0.00 0.01 0.01 76 1017.0
20260901010019 67 0.0 0.0 0.00 0.01 0.01 76 1016.9
20260901005036 67 0.0 0.0 0.00 0.01 0.01 75 1017.0
20260901004018 67 0.0 0.0 0.00 0.01 0.01 75 1016.9
20260901003016 68 0.0 0.0 0.00 0.01 0.01 74 1016.8
20260901002019 68 0.0 0.0 0.00 0.01 0.01 74 1016.9
20260901001016 68 0.0 0.0 0.00 0.01 0.01 72 1016.9
20260901000037 69 0.0 0.0 0.00 0.01 0.01 73 1016.8
20260831235017 69 0.0 0.0 0.00 0.01 0.01 72 1016.7
20260831234017 70 0.0 0.0 0.00 0.01 0.01 71 1016.9
20260831233017 71 0.0 0.0 0.00 0.01 0.01 68 1016.9
20260831232017 72 0.0 0.0 0.00 0.01 0.01 65 1017.0
20260831231017 72 0.0 0.0 0.00 0.01 0.01 63 1017.2
20260831230018 73 0.0 0.0 0.00 0.01 0.01 65 1017.2
20260831225017 73 0.0 0.0 0.00 0.01 0.01 62 1017.1
20260831224017 73 0.0 0.0 0.00 0.01 0.01 63 1017.2
20260831223016 74 0.0 2.0 0.00 0.01 0.01 60 1017.1
20260831222017 74 0.0 0.0 0.00 0.01 0.01 60 1017.0
20260831221017 74 0.0 0.0 0.00 0.01 0.01 59 1016.9
20260831220018 74 0.0 0.0 0.00 0.01 0.01 58 1017.0
20260831215017 74 0.0 0.0 0.00 0.01 0.01 59 1017.1
20260831214058 75 0.0 0.0 0.00 0.01 0.01 60 1017.0
20260831213037 75 0.0 0.0 0.00 0.01 0.01 57 1017.0
20260831212017 75 0.0 0.0 0.00 0.01 0.01 56 1017.2
20260831211516 75 0.0 0.0 0.00 0.01 0.01 55 1017.2
20260831211016 75 0.0 2.0 0.00 0.01 0.01 56 1017.2
20260831210516 76 0.0 2.0 0.00 0.01 0.01 55 1017.3
20260831205518 76 0.0 0.0 0.00 0.01 0.01 53 1017.5
20260831205017 76 0.0 0.0 0.00 0.01 0.01 55 1017.5
20260831204537 76 0.0 0.0 0.00 0.01 0.01 55 1017.6
20260831203516 76 0.0 0.0 0.00 0.01 0.01 55 1017.5
20260831202538 76 0.0 0.0 0.00 0.01 0.01 52 1017.6
20260831201517 76 0.0 2.0 0.00 0.01 0.01 54 1017.6
20260831200517 76 0.0 1.0 0.00 0.01 0.01 52 1017.4
20260831195517 76 0.0 2.0 0.00 0.01 0.01 56 1017.6
20260831194537 76 135 1.0 4.0 0.00 0.01 0.01 58 1017.7
20260831194017 76 135 1.0 2.0 0.00 0.01 0.01 57 1017.7
20260831193016 75 0.0 0.0 0.00 0.01 0.01 61 1017.8
20260831192516 74 0.0 1.0 0.00 0.01 0.01 62 1017.9
20260831191516 74 0.0 2.0 0.00 0.01 0.01 58 1018.0
20260831190517 74 135 1.0 2.0 0.00 0.01 0.01 65 1018.0
20260831185517 74 135 1.0 3.0 0.00 0.01 0.01 66 1018.1
20260831184517 75 135 3.0 4.0 0.00 0.01 0.01 66 1018.1
20260831183517 74 135 1.0 4.0 0.00 0.01 0.01 67 1018.1
20260831182537 73 135 2.0 4.0 0.00 0.01 0.01 67 1018.3
20260831181517 73 135 3.0 4.0 0.00 0.01 0.01 69 1018.5
20260831180517 74 135 1.0 3.0 0.00 0.01 0.01 68 1018.5
20260831175535 73 135 1.0 2.0 0.00 0.01 0.01 70 1018.8
20260831174517 73 135 1.0 3.0 0.00 0.01 0.01 68 1019.0
20260831173518 73 135 1.0 3.0 0.00 0.01 0.01 71 1019.1
20260831172517 73 135 1.0 2.0 0.00 0.01 0.01 71 1019.2
20260831171517 73 135 1.0 3.0 0.00 0.01 0.01 69 1019.3
20260831170517 73 0.0 1.0 0.00 0.01 0.01 72 1019.3
20260831165517 73 135 1.0 2.0 0.00 0.01 0.01 71 1019.4
20260831164516 72 0.0 0.0 0.00 0.01 0.01 72 1019.5
20260831163517 72 0.0 1.0 0.00 0.01 0.01 72 1019.6
20260831162538 72 135 1.0 4.0 0.00 0.01 0.01 72 1019.6
20260831161517 72 0.0 2.0 0.00 0.01 0.01 73 1019.6
20260831160537 72 0.0 2.0 0.00 0.01 0.01 73 1019.6
20260831155517 71 135 2.0 3.0 0.00 0.01 0.01 74 1019.7
20260831154536 71 0.0 2.0 0.00 0.01 0.01 76 1019.7
20260831153518 70 135 2.0 4.0 0.00 0.01 0.01 76 1019.7
20260831152517 70 135 1.0 3.0 0.00 0.01 0.01 76 1019.7
20260831151517 69 135 2.0 3.0 0.00 0.01 0.01 77 1019.7
20260831150517 69 135 3.0 5.0 0.00 0.01 0.01 79 1019.7
20260831145517 68 135 3.0 4.0 0.00 0.01 0.01 79 1019.9
20260831144517 67 135 2.0 3.0 0.00 0.01 0.01 81 1019.8
20260831143516 67 135 1.0 4.0 0.00 0.01 0.01 81 1019.7
20260831142517 66 135 2.0 4.0 0.00 0.01 0.01 83 1019.7
20260831141517 66 0.0 2.0 0.00 0.01 0.01 85 1019.8
20260831140517 65 135 1.0 3.0 0.00 0.01 0.01 84 1019.7
20260831135517 64 113 1.0 3.0 0.00 0.01 0.01 87 1019.8
20260831134517 63 315 1.0 4.0 0.00 0.01 0.01 88 1019.9
20260831133557 62 0.0 0.0 0.00 0.01 0.01 92 1019.9
20260831132618 61 0.0 0.0 0.00 0.01 0.01 92 1019.9
20260831131517 61 0.0 0.0 0.00 0.01 0.01 95 1019.9
20260831130537 60 0.0 0.0 0.00 0.01 0.01 95 1020.0
20260831125516 59 0.0 0.0 0.00 0.01 0.01 96 1019.9
20260831124516 59 0.0 0.0 0.00 0.01 0.01 97 1020.0
20260831123517 58 0.0 0.0 0.00 0.01 0.01 97 1020.0
20260831122517 58 0.0 0.0 0.00 0.01 0.01 97 1020.1
20260831121516 58 0.0 0.0 0.01 0.01 0.01 97 1020.3
20260831120516 57 0.0 0.0 0.01 0.01 0.01 97 1020.2
20260831115538 56 0.0 0.0 0.01 0.01 0.01 97 1020.4
20260831114517 55 0.0 0.0 0.01 0.01 0.01 97 1020.4
20260831113516 55 0.0 0.0 0.01 0.01 0.01 97 1020.4
20260831112517 55 0.0 0.0 0.01 0.01 0.01 97 1020.3
20260831111537 54 0.0 0.0 0.00 0.00 0.00 97 1020.2
20260831110517 54 0.0 0.0 0.00 0.00 0.00 96 1020.2
20260831105517 54 0.0 0.0 0.00 0.00 0.00 96 1020.1
20260831104517 54 0.0 0.0 0.00 0.00 0.00 96 1020.0
20260831103517 54 0.0 0.0 0.00 0.00 0.00 96 1019.9
20260831102517 53 0.0 0.0 0.00 0.00 0.00 96 1019.7
20260831101518 54 0.0 0.0 0.00 0.00 0.00 96 1019.7
20260831100516 54 0.0 0.0 0.00 0.00 0.00 96 1019.6
20260831095517 54 0.0 0.0 0.00 0.00 0.00 96 1019.6